www.pogodaiklimat.ru

Погода и климат >> Архив погоды >> Россия >> Нижегородская область >> Павлово


ПОГОДА в Павлово

  • Прогноз погоды в Павлово
  • Монитор погоды в Павлово
  • Климат города

АРХИВ ПОГОДЫ в Павлово

Время (UTC), дата Ветер
(напр.,м/с)
 
Видим.   Явления Облачность Т
(С)
Тd
(С)
f
(%)
Тe
(С)
Тes
(С)
Комфортность P
(гПа)
Po
(гПа)
Тmin
(С)
Tmax
(С)
R
(мм)
R24
(мм)
S
(см)
06 14.02 штиль 0
{1}
50 км ясно -16.0 -17.3 90 -16 -15 1033.7 1015.8 -16.8
09 14.02 СЗ 1-2
{2}
50 км ясно -11.2 -13.2 85 -13 -10 1034.2 1016.7
12 14.02 В 1-3
{3}
50 км ясно -6.9 -11.1 72 -9 -8 1033.9 1016.7
15 14.02 В 1-2
{3}
20 км 3/0
[Ci fib]
-8.9 -11.8 79 -11 -11 1034.5 1017.2 -6.8
18 14.02 ЮВ 1-2
{3}
20 км ясно -11.1 -13.1 85 -13 -13 1035.1 1017.6
21 14.02 штиль 0
{2}
20 км ясно -13.2 -14.5 90 -13 -13 1036.1 1018.3
00 15.02 штиль 0
{2}
20 км ясно -14.3 -15.6 90 -14 -14 1037.1 1019.3
03 15.02 штиль 0
{1}
20 км ясно -15.9 -16.7 94 -16 -16 1037.4 1019.5 -16.0 34
06 15.02 штиль 0
{1}
35 км 3/0
[Ci fib]
-15.8 -17.1 90 -16 -15 1038.4 1020.5 -16.2
09 15.02 ЮВ 1-3
{3}
45 км ясно -9.5 -13.0 76 -12 -8 1038.9 1021.4
12 15.02 В 1-2
{3}
50 км ясно -7.3 -11.6 71 -9 -8 1038.7 1021.3
15 15.02 ЮВ 1-2
{2}
20 км ясно -9.3 -12.8 76 -12 -12 1038.8 1021.3 -7.1
18 15.02 ЮВ 1-3
{4}
20 км ясно -11.5 -14.3 80 -14 -14 1039.0 1021.3
21 15.02 Ю 1-3
{4}
20 км ясно -12.3 -15.0 80 -15 -15 1039.0 1021.3
00 16.02 штиль 0
{4}
20 км 4/0
[Ci sp]
-10.6 -13.4 80 -11 -11 1038.7 1021.2
03 16.02 Ю 1-2
{4}
20 км 10/0
[Cs]
-10.3 -13.1 80 -13 -13 1038.2 1020.7 -12.6 34
06 16.02 ЮВ 1-3
{5}
50 км слабый снег 10/0
[As op]
-9.1 -11.6 82 -11 -11 1037.9 1020.5
09 16.02 Ю 1-3
{4}
50 км слабый ливневой снег 10/8 600 м
[Cb cap As op Ci fib]
-6.9 -9.4 82 -9 -9 1037.5 1020.2
12 16.02 Ю 1-4
{5}
50 км слабый снег {ливн. осадки} 10/8 600 м
[Sc As op]
-4.5 -7.6 79 -7 -7 1036.6 1019.5
15 16.02 Ю 2-4
{6}
20 км в посл. час снег 10/8 600 м
[Sc As op]
-4.2 -6.8 82 -8 -8 1036.3 1019.2 -3.8 0.4
18 16.02 Ю 2-6
{6}
20 км {снег} 9/9 1000 м
[Sc]
-4.4 -8.3 74 -8 -8 1036.1 1019.0
21 16.02 Ю 1-4
{6}
20 км 10/10 1000 м
[Sc]
-4.7 -9.1 71 -7 -7 1035.1 1018.0
00 17.02 Ю 1-3
{4}
20 км 9/9 600 м
[Sc]
-5.2 -9.7 71 -7 -7 1034.8 1017.7
03 17.02 ЮВ 2-5
{6}
20 км 9/9 1000 м
[Sc]
-6.1 -10.5 71 -10 -10 1033.7 1016.5 -6.3 34
06 17.02 Ю 1-4
{6}
50 км 10/3 1000 м
[Sc Ac As]
-6.7 -11.3 70 -9 -9 1033.0 1015.8 -6.9
09 17.02 Ю 2-5
{6}
50 км слабый ливневой снег 9/6 600 м
[Cb cap Ac trans]
-4.0 -9.8 64 -8 -7 1031.8 1014.7
12 17.02 Ю 2-6
{6}
50 км {ливн. осадки} 10/10 1000 м
[Sc]
-4.3 -8.1 75 -8 -8 1030.3 1013.2
15 17.02 Ю 2-5
{6}
10 км слабый снег 10/9 1000 м
[Sc As op]
-5.2 -7.3 85 -9 -9 1029.8 1012.7 -3.7 0.4
18 17.02 ЮВ 2-4
{7}
20 км слабый снег 10/10 1000 м
[Sc]
-5.2 -8.1 80 -9 -9 1028.9 1011.9
21 17.02 ЮВ 1-4
{6}
20 км {снег} 10/10 1000 м
[Sc]
-5.2 -9.3 73 -7 -7 1028.0 1011.0
00 18.02 ЮВ 2-5
{6}
20 км {снег} 10/10 1000 м
[Sc]
-5.4 -10.5 67 -9 -9 1027.0 1009.9
03 18.02 Ю 2-5
{7}
20 км 9/9 1000 м
[Sc]
-6.1 -11.5 66 -10 -10 1025.9 1008.8 -6.4 0.0 35
06 18.02 ЮВ 1-5
{8}
50 км {снег} 10/0
[As op Cs]
-6.9 -10.6 75 -9 -8 1025.6 1008.5 -7.1
09 18.02 Ю 2-4
{7}
20 км слабый снег 9/4 300 м
[Frnb Ac As]
-5.1 -9.6 71 -9 -8 1024.5 1007.5
12 18.02 ЮВ 2-4
{6}
15 км слабый снег 10/3 300 м
[Frnb As trans]
-4.1 -8.3 73 -8 -8 1023.2 1006.3
15 18.02 ЮВ 1-3
{6}
4000 м слабый снег 10/8 300 м
[Frnb As op]
-4.3 -6.1 87 -7 -7 1021.7 1004.8 -3.1 0.4
18 18.02 Ю 1-3
{5}
4000 м слабый снег 10/8 300 м
[Frnb As op]
-5.3 -6.7 90 -8 -8 1021.0 1004.1
21 18.02 ЮВ 1-2
{4}
10 км слабый снег 10/8 300 м
[Frnb As op]
-6.0 -7.1 92 -8 -8 1020.2 1003.2
00 19.02 Ю 1-2
{3}
10 км слабый снег 10/8 300 м
[Frnb As op]
-6.7 -7.9 91 -9 -9 1019.3 1002.4
03 19.02 Ю 1-2
{2}
10 км слабый снег 10/8 300 м
[Frnb As op]
-7.3 -8.2 93 -10 -10 1018.6 1001.6 -7.4 3 38
06 19.02 Ю 1-3
{3}
50 км {снег} 4/0
[Ac As]
-8.8 -9.9 92 -11 -10 1018.4 1001.3 -9.1
09 19.02 ЮЗ 1-2
{4}
10 км слабый снег 10/4 300 м
[Frnb As trans]
-4.8 -7.2 83 -7 -6 1018.3 1001.5
12 19.02 штиль 0
{2}
22 км слабый ливневой снег 10/10 300 м
[Cb calv]
-3.5 -6.0 83 -5 -5 1017.7 1000.9
15 19.02 Ю 1-2
{3}
20 км {ливн. осадки, снег} 10/10 600 м
[Sc]
-4.6 -6.6 86 -7 -7 1017.7 1000.9 -3.1 0.8
18 19.02 штиль 0
{2}
20 км {ливн. осадки, снег} 10/10 600 м
[Sc]
-5.2 -6.6 90 -6 -6 1017.1 1000.3
21 19.02 штиль 0
{2}
4000 м слабый снег 10/9 300 м
[Frnb As op]
-5.2 -6.2 93 -6 -6 1016.2 999.4
00 20.02 штиль 0
{1}
4000 м слабый снег 10/9 300 м
[Frnb As op]
-5.7 -6.4 95 -7 -7 1015.8 998.9
03 20.02 штиль 0
{2}
10 км слабый снег 10/8 300 м
[Frnb As op]
-5.5 -6.2 95 -7 -7 1015.3 998.4 -6.0 0.7 39
06 20.02 З 2-4
{5}
35 км в посл. час снег 10/0
[As op]
-5.3 -6.0 95 -10 -10 1015.2 998.4
09 20.02 З 2-3
{5}
50 км {снег} 9/0
[Ac As]
-4.5 -6.8 84 -9 -7 1015.5 998.7
12 20.02 З 2-3
{5}
6000 м слабый ливневой снег 10/4 600 м
[Cb cap As op]
-4.3 -5.9 89 -9 -8 1015.4 998.6
15 20.02 З 2-3
{5}
20 км в посл. час ливневой снег 10/3 600 м
[Sc As op]
-7.0 -7.9 93 -12 -12 1016.0 999.1 -3.6 1
18 20.02 З 3-6
{6}
20 км слабый снег {ливн. осадки} 10/8 600 м
[Sc As op]
-8.1 -9.1 92 -14 -14 1016.6 999.5
21 20.02 З 2-5
{6}
20 км в посл. час снег 9/9 600 м
[Sc]
-9.0 -10.1 92 -14 -14 1016.6 999.5
00 21.02 З 3-5
{6}
20 км слабый снег 10/9 300 м
[Sc As op]
-10.7 -12.0 90 -17 -17 1017.1 999.9

 

Местоположение метеостанции Павлово (Нижегородская область, Россия): широта 55.95 долгота 43.03 высота над уровнем моря 131 м.

В архиве по умолчанию представлена погода в Павлово за последнюю неделю. Архивные данные за месяц целиком и за предыдущие месяцы, начиная с января 2011 года, Вы можете получить, выбрав интересующий диапазон дат из раскрывающегося списка и нажав кнопку "Ввод!".

Внимание! Время в таблицах - всемирное. Для получения местного времени необходимо прибавить поправку, которая в Павлово равна 3 ч.

Смотрите также архив погоды в соседних городах и на ближайших метеорологических станциях:

Погода в Нижнем Новгороде аэропорт (Нижегородская область, Россия) (55 км)
Погода в Вязниках (Владимирская область, Россия) (60 км)
Погода в Дальнем Константиново (Нижегородская область, Россия) (68 км)
Погода в Нижнем Новгороде (Нижегородская область, Россия) (70 км)
Погода в Муроме (Владимирская область, Россия) (74 км)
Погода в Арзамасе (Нижегородская область, Россия) (80 км)
Погода в Волжской ГМО (Нижегородская область, Россия) (85 км)
Погода в Выксе (Нижегородская область, Россия) (90 км)
Погода в Коврове (Владимирская область, Россия) (114 км)
Погода в Лысково (Нижегородская область, Россия) (125 км)

Пояснения к столбцам:

Ветер - указаны скорость ветра в м/с - средняя за 10 мин, порывы в срок и между сроками (в фигурных скобках) и направление, откуда дует ветер: С - северный, СВ - северо-восточный, В - восточный, ЮВ - юго-восточный, Ю - южный, ЮЗ - юго-западный, З - западный, СЗ - северо-западный.
Видимость - горизонтальная дальность видимости в метрах или километрах. При видимости от 1 до 10 км при отсутствии осадков обычно наблюдается дымка, при ухудшении видимости до 1 км и менее - туман. В сухую погоду видимость может ухудшаться дымом, пылью или мглою.
Явления - указаны атмосферные явления, наблюдавшиеся в срок или в последний час перед сроком; фигурными скобками обозначены явления, наблюдавшиеся между сроками (за 1-3 часа до срока); квадратными скобками обозначены град или гололедные отложения с указанием их диаметра в мм.
Облачность - указаны через наклонную черту общая и нижняя облачность в баллах и высота нижней границы облаков в метрах; квадратными скобками обозначены формы облаков: Ci - перистые, Cs - перисто-слоистые, Cc - перисто-кучевые, Ac - высококучевые, As - высокослоистые, Sc - слоисто-кучевые, Ns - слоисто-дождевые, Cu - кучевые, Cb - кучево-дождевые. Подробнее классификацию облаков см. в Атласе облаков (PDF).
T - Температура воздуха - температура, измеренная на высоте 2 м над землей.
Td - Температура точки росы - температура, при понижении до которой содержащийся в воздухе водяной пар достигнет насыщения.
f - Относительная влажность воздуха - влажноcть воздуха, измеренная на высоте 2 м над землей.
Te - Эффективная температура - температура, которую ощущает одетый по сезону человек в тени. Характеристика душности погоды. При расчете учитывается влияние влажности воздуха и скорости ветра на теплоощущения человека.
Tes - Эффективная температура на солнце - температура, которую ощущает человек, с поправкой на солнечный нагрев. Характеристика знойности погоды. Зависит от высоты солнца над горизонтом, облачности и скорости ветра. Ночью, в пасмурную погоду, а также при ветре 12 м/с и более поправка равна нулю.
P - Атмосферное давление - приведенное к уровню моря атмосферное давление.
Po - Атмосферное давление - измеренное на уровне метеостанции атмосферное давление.
Tmin - Минимальная температура - минимум температуры воздуха на высоте 2 м над землей.
Tmax - Максимальная температура - максимум температуры воздуха на высоте 2 м над землей.
R - Количество осадков - Количество выпавших осадков за период времени, мм. При наведении курсора мыши на число - период времени, за который выпало указанное количество осадков.
R24 - Количество осадков - Количество выпавших осадков за 24 часа, мм.
S - Снежный покров - Высота снежного покрова, см. При наведении курсора мыши на число - состояние снежного покрова и степень покрытия местности в баллах.